GW6248 Weather Reports


time (UTC)temp
F
wind
direction
speed
knots
gust
knots
rain 1hr
in
rain 24hr
in
rain mn
in
humidity
%
barometer
mb
20260506011003 39 8 0.9 1.7 0.00 0.00 0.00 94 1014.7
20260506010503 39 349 0.9 1.7 0.00 0.00 0.00 94 1014.7
20260506010003 39 329 0.9 1.7 0.00 0.00 0.00 94 1014.8
20260506005503 40 328 0.9 1.7 0.00 0.00 0.00 94 1014.8
20260506005003 39 322 0.9 1.7 0.00 0.00 0.00 94 1014.8
20260506004504 40 332 0.9 1.7 0.00 0.00 0.00 93 1014.6
20260506004003 40 348 0.0 1.7 0.00 0.00 0.00 93 1014.7
20260506003717 40 331 0.0 1.7 0.00 0.00 0.00 93 1014.7
20260506003003 40 333 0.9 1.7 0.00 0.00 0.00 93 1014.9
20260506002503 40 335 0.9 1.7 0.00 0.00 0.00 93 1014.8
20260506002216 40 325 0.9 1.7 0.00 0.00 0.00 93 1015.0
20260506001503 40 338 0.9 1.7 0.00 0.00 0.00 92 1014.7
20260506001003 41 343 0.9 1.7 0.00 0.00 0.00 92 1014.9
20260506000503 41 345 0.0 1.7 0.00 0.00 0.00 92 1014.8
20260506000219 41 336 0.0 1.7 0.00 0.00 0.00 92 1014.9
20260505235503 41 299 0.0 1.7 0.00 0.00 0.00 92 1014.9
20260505235003 41 305 0.0 1.7 0.00 0.00 0.00 92 1014.9
20260505234717 41 316 0.0 1.7 0.00 0.00 0.00 92 1014.9
20260505234003 41 318 0.0 0.9 0.00 0.00 0.00 92 1015.0
20260505233717 41 331 0.0 0.9 0.00 0.00 0.00 92 1014.7
20260505233218 41 310 0.0 1.7 0.00 0.00 0.00 91 1014.9
20260505232503 41 308 0.0 1.7 0.00 0.00 0.00 91 1014.9
20260505232218 41 311 0.0 1.7 0.00 0.00 0.00 91 1014.8
20260505231503 41 302 0.0 1.7 0.00 0.00 0.00 90 1015.0
20260505231003 42 310 0.0 1.7 0.00 0.00 0.00 90 1014.9
20260505230503 42 319 0.9 1.7 0.00 0.00 0.00 89 1014.9
20260505230003 42 310 0.0 1.7 0.00 0.00 0.00 89 1014.7
20260505225503 42 304 0.0 1.7 0.00 0.00 0.00 88 1014.9
20260505225003 42 335 0.0 1.7 0.00 0.00 0.00 87 1015.0
20260505224503 42 339 0.0 1.7 0.00 0.00 0.00 87 1014.8
20260505224003 43 333 0.0 1.7 0.00 0.00 0.00 87 1015.0
20260505223503 43 324 0.0 1.7 0.00 0.00 0.00 86 1015.1
20260505223003 44 329 0.9 1.7 0.00 0.00 0.00 85 1014.9
20260505222717 44 329 0.9 1.7 0.00 0.00 0.00 85 1014.9
20260505222003 44 330 0.9 1.7 0.00 0.00 0.00 84 1015.0
20260505221503 44 319 0.9 1.7 0.00 0.00 0.00 83 1014.9
20260505221003 44 318 0.9 1.7 0.00 0.00 0.00 84 1015.0
20260505220503 45 318 0.9 1.7 0.00 0.00 0.00 83 1014.8
20260505220003 45 309 0.0 1.7 0.00 0.00 0.00 83 1014.9
20260505215503 45 306 0.9 1.7 0.00 0.00 0.00 83 1014.8
20260505215003 45 308 0.9 1.7 0.00 0.00 0.00 82 1015.0
20260505214503 46 310 0.9 2.6 0.00 0.00 0.00 81 1014.9
20260505214217 46 310 0.9 2.6 0.00 0.00 0.00 81 1015.0
20260505213503 46 319 0.9 2.6 0.00 0.00 0.00 81 1014.9
20260505213217 46 319 0.9 2.6 0.00 0.00 0.00 81 1015.1
20260505212503 46 332 0.9 2.6 0.00 0.00 0.00 80 1015.0
20260505212217 46 342 0.9 1.7 0.00 0.00 0.00 80 1014.6
20260505211503 47 349 0.9 1.7 0.00 0.00 0.00 81 1014.6
20260505211003 47 338 0.0 1.7 0.00 0.00 0.00 80 1014.9
20260505210503 47 316 0.0 1.7 0.00 0.00 0.00 79 1015.0
20260505210217 47 315 0.9 1.7 0.00 0.00 0.00 79 1014.9
20260505205503 48 326 0.9 1.7 0.00 0.00 0.00 77 1014.8
20260505205003 48 347 0.9 1.7 0.00 0.00 0.00 76 1014.5
20260505204503 49 349 0.9 1.7 0.00 0.00 0.00 76 1014.5
20260505204003 49 336 0.9 1.7 0.00 0.00 0.00 75 1014.4
20260505203718 49 336 0.9 1.7 0.00 0.00 0.00 75 1014.6
20260505203003 49 346 0.9 1.7 0.00 0.00 0.00 75 1014.4
20260505202503 50 330 0.0 1.7 0.00 0.00 0.00 75 1014.6
20260505202003 50 316 0.9 1.7 0.00 0.00 0.00 74 1014.3
20260505201503 50 316 0.0 1.7 0.00 0.00 0.00 73 1014.7
20260505201003 50 319 0.9 1.7 0.00 0.00 0.00 74 1014.3
20260505200503 50 323 0.9 1.7 0.00 0.00 0.00 72 1014.3
20260505200003 50 326 0.0 1.7 0.00 0.00 0.00 73 1014.3
20260505195503 51 316 0.9 3.5 0.00 0.00 0.00 72 1014.4
20260505195003 51 310 0.9 3.5 0.00 0.00 0.00 72 1014.1
20260505194503 51 308 0.9 2.6 0.00 0.00 0.00 72 1014.2
20260505194003 51 303 0.9 1.7 0.00 0.00 0.00 71 1014.0
20260505193503 51 291 0.9 3.5 0.00 0.00 0.00 69 1014.2
20260505193003 51 287 0.9 3.5 0.00 0.00 0.00 68 1014.2
20260505192503 51 304 0.9 2.6 0.00 0.00 0.00 70 1014.1
20260505192003 52 309 0.9 2.6 0.00 0.00 0.00 71 1014.1
20260505191503 52 301 0.9 1.7 0.00 0.00 0.00 70 1014.3
20260505191003 52 304 0.9 1.7 0.00 0.00 0.00 69 1014.2
20260505190503 52 308 0.9 1.7 0.00 0.00 0.00 69 1014.0
20260505190003 52 322 0.9 1.7 0.00 0.00 0.00 67 1013.9
20260505185503 52 327 0.9 1.7 0.00 0.00 0.00 68 1013.9
20260505185003 52 326 0.9 1.7 0.00 0.00 0.00 70 1014.0
20260505184503 53 340 0.9 1.7 0.00 0.00 0.00 69 1013.9
20260505184003 52 337 0.9 1.7 0.00 0.00 0.00 67 1014.0
20260505183717 52 328 0.9 1.7 0.00 0.00 0.00 70 1013.7
20260505183003 53 312 0.9 3.5 0.00 0.00 0.00 70 1014.0
20260505182503 53 302 1.7 4.3 0.00 0.00 0.00 66 1013.9
20260505182003 53 309 0.9 4.3 0.00 0.00 0.00 65 1013.9
20260505181503 53 320 0.9 4.3 0.00 0.00 0.00 69 1013.9
20260505181003 53 327 0.9 1.7 0.00 0.00 0.00 72 1014.0
20260505180503 53 330 0.0 1.7 0.00 0.00 0.00 71 1014.1
20260505180003 53 342 0.0 1.7 0.00 0.00 0.00 70 1013.9
20260505175504 53 329 0.9 1.7 0.00 0.00 0.00 68 1013.9
20260505175003 53 327 0.9 1.7 0.00 0.00 0.00 65 1013.8
20260505174503 53 341 0.9 1.7 0.00 0.00 0.00 68 1013.9
20260505174003 54 345 0.9 1.7 0.00 0.00 0.00 67 1014.1
20260505173503 54 338 0.9 1.7 0.00 0.00 0.00 67 1014.0
20260505173218 54 337 0.9 1.7 0.00 0.00 0.00 66 1013.8
20260505172717 54 341 0.9 1.7 0.00 0.00 0.00 65 1014.0
20260505172218 54 319 0.9 1.7 0.00 0.00 0.00 67 1014.1
20260505171503 54 299 0.9 2.6 0.00 0.00 0.00 65 1013.8
20260505171003 54 332 0.9 2.6 0.00 0.00 0.00 67 1013.9
20260505170503 53 327 0.9 1.7 0.00 0.00 0.00 67 1013.9
20260505170218 54 309 0.9 2.6 0.00 0.00 0.00 67 1014.0
20260505165503 54 300 0.9 2.6 0.00 0.00 0.00 66 1014.0
20260505165003 54 310 0.9 1.7 0.00 0.00 0.00 67 1014.0
20260505164503 54 305 0.9 3.5 0.00 0.00 0.00 66 1014.0
20260505164217 54 304 0.9 3.5 0.00 0.00 0.00 65 1014.0
20260505163503 53 318 0.9 1.7 0.00 0.00 0.00 66 1014.0
20260505163003 54 297 0.9 1.7 0.00 0.00 0.00 65 1014.2
20260505162503 54 292 0.9 1.7 0.00 0.00 0.00 67 1013.9
20260505162003 54 278 0.9 2.6 0.00 0.00 0.00 65 1014.1
20260505161503 53 278 0.9 2.6 0.00 0.00 0.00 65 1014.2
20260505161003 54 299 0.9 1.7 0.00 0.00 0.00 67 1014.4
20260505160718 54 281 0.9 2.6 0.00 0.00 0.00 67 1014.2
20260505160217 54 271 0.9 2.6 0.00 0.00 0.00 66 1014.0
20260505153003 54 352 0.9 3.5 0.00 0.00 0.00 70 1014.2
20260505152504 55 349 0.9 3.5 0.00 0.00 0.00 64 1014.0
20260505152217 55 275 0.9 2.6 0.00 0.00 0.00 64 1014.3
20260505151503 54 25 0.9 2.6 0.00 0.00 0.00 63 1014.1
20260505151217 54 269 0.9 3.5 0.00 0.00 0.00 65 1014.2
20260505150503 54 272 0.9 3.5 0.00 0.00 0.00 66 1014.3
20260505140503 55 347 0.9 1.7 0.00 0.00 0.00 65 1014.2
20260505130218 55 263 0.9 3.5 0.00 0.00 0.00 62 1014.2
20260505125003 55 257 0.9 3.5 0.00 0.00 0.00 64 1014.0
20260505124717 55 244 0.9 3.5 0.00 0.00 0.00 62 1014.2
20260505124004 55 220 1.7 5.2 0.00 0.00 0.00 60 1014.4
20260505123503 55 203 2.6 5.2 0.00 0.00 0.00 61 1014.3
20260505123218 55 195 1.7 5.2 0.00 0.00 0.00 60 1014.3
20260505122717 55 204 1.7 4.3 0.00 0.00 0.00 60 1014.3
20260505122003 55 202 1.7 4.3 0.00 0.00 0.00 61 1014.2
20260505121503 56 198 1.7 4.3 0.00 0.00 0.00 58 1014.3
20260505121003 56 228 1.7 4.3 0.00 0.00 0.00 55 1014.4
20260505120503 56 235 1.7 3.5 0.00 0.00 0.00 54 1014.1
20260505120003 55 229 1.7 3.5 0.00 0.00 0.00 57 1014.3
20260505115503 55 235 0.9 3.5 0.00 0.00 0.00 55 1014.5
20260505115003 55 260 1.7 3.5 0.00 0.00 0.00 59 1014.3
20260505114503 55 241 2.6 5.2 0.00 0.00 0.00 57 1014.3
20260505114218 55 234 1.7 5.2 0.00 0.00 0.00 59 1014.4
20260505113503 55 292 0.9 3.5 0.00 0.00 0.00 59 1014.3
20260505113003 55 217 1.7 3.5 0.00 0.00 0.00 60 1014.5
20260505112503 54 230 1.7 3.5 0.00 0.00 0.00 60 1014.4
20260505112003 55 276 0.9 2.6 0.00 0.00 0.00 61 1014.7
20260505111503 55 318 0.9 1.7 0.00 0.00 0.00 58 1014.5
20260505111003 55 296 0.9 1.7 0.00 0.00 0.00 61 1014.7
20260505110503 54 260 0.9 1.7 0.00 0.00 0.00 60 1014.6
20260505110217 54 289 0.9 1.7 0.00 0.00 0.00 63 1014.8
20260505102003 52 343 0.9 1.7 0.00 0.00 0.00 76 1014.8
20260505101503 53 324 0.0 1.7 0.00 0.00 0.00 77 1015.1
20260505101003 52 279 0.0 1.7 0.00 0.00 0.00 72 1015.0
20260505100718 52 315 0.0 1.7 0.00 0.00 0.00 72 1015.1
20260505100003 52 337 0.0 1.7 0.00 0.00 0.00 76 1014.9
20260505095718 52 336 0.0 1.7 0.00 0.00 0.00 76 1014.9
20260505095003 52 357 0.0 3.5 0.00 0.00 0.00 76 1015.0
20260505094503 51 264 0.9 3.5 0.00 0.00 0.00 75 1015.1
20260505094217 51 259 0.9 1.7 0.00 0.00 0.00 74 1014.9
20260505093503 51 266 0.0 1.7 0.00 0.00 0.00 76 1014.9
20260505093003 51 298 0.0 1.7 0.00 0.00 0.00 78 1015.2
20260505092503 50 285 0.0 2.6 0.00 0.00 0.00 80 1015.4
20260505092003 50 275 0.9 2.6 0.00 0.00 0.00 82 1015.1
20260505091718 49 269 0.9 2.6 0.00 0.00 0.00 82 1015.3
20260505091003 49 261 0.9 1.7 0.00 0.00 0.00 83 1015.2
20260505090718 49 259 0.9 2.6 0.00 0.00 0.00 84 1015.2
20260505090218 49 256 0.9 2.6 0.00 0.00 0.00 85 1015.6
20260505085717 48 265 0.9 2.6 0.00 0.00 0.00 84 1015.1
20260505085003 48 275 0.9 2.6 0.00 0.00 0.00 86 1015.1
20260505084503 47 265 0.9 2.6 0.00 0.00 0.00 86 1015.2
20260505084003 47 270 0.9 2.6 0.00 0.00 0.00 87 1015.4
20260505083717 47 274 0.9 2.6 0.00 0.00 0.00 88 1015.6
20260505083003 46 267 0.9 2.6 0.00 0.00 0.00 88 1015.5
20260505082503 46 264 0.9 2.6 0.00 0.00 0.00 89 1015.4
20260505082216 46 267 0.9 2.6 0.00 0.00 0.00 89 1015.2
20260505081504 46 295 0.9 1.7 0.00 0.00 0.00 90 1015.3
20260505081003 46 300 0.9 1.7 0.00 0.00 0.00 89 1015.4
20260505080503 46 283 0.9 1.7 0.00 0.00 0.00 90 1015.3
20260505080003 45 281 0.9 1.7 0.00 0.00 0.00 89 1015.3
20260505075503 46 357 0.9 1.7 0.00 0.00 0.00 90 1015.3
20260505075218 45 30 0.9 1.7 0.00 0.00 0.00 90 1015.2
20260505074503 45 29 0.0 1.7 0.00 0.00 0.00 90 1015.2
20260505074218 45 32 0.9 2.6 0.00 0.00 0.00 90 1015.0
20260505073503 45 351 0.9 2.6 0.00 0.00 0.00 90 1015.3
20260505073218 45 287 0.9 2.6 0.00 0.00 0.00 90 1015.5
20260505072503 45 320 0.9 1.7 0.00 0.00 0.00 90 1015.3
20260505072003 45 316 0.9 1.7 0.00 0.00 0.00 90 1015.3
20260505071503 45 319 0.9 2.6 0.00 0.00 0.00 91 1015.4
20260505071003 45 325 0.9 2.6 0.00 0.00 0.00 92 1015.5
20260505070503 44 358 0.9 2.6 0.00 0.00 0.00 92 1015.4
20260505070218 44 22 0.9 2.6 0.00 0.00 0.00 93 1015.5
20260505065503 43 32 0.9 2.6 0.00 0.00 0.00 93 1015.4
20260505065003 43 34 0.9 2.6 0.00 0.00 0.00 94 1015.6
20260505064503 42 28 0.9 1.7 0.00 0.00 0.00 95 1015.7
20260505064218 42 22 0.9 1.7 0.00 0.00 0.00 95 1015.7
20260505063716 42 10 0.9 2.6 0.00 0.00 0.00 96 1015.6
20260505063003 42 20 0.9 2.6 0.00 0.00 0.00 97 1015.6
20260505062719 42 21 0.9 2.6 0.00 0.00 0.00 97 1015.5
20260505062003 41 359 0.9 2.6 0.00 0.00 0.00 97 1015.6
20260505061503 41 325 0.9 1.7 0.00 0.00 0.00 97 1015.5
20260505061004 40 325 0.9 1.7 0.00 0.00 0.00 97 1015.6
20260505060503 40 327 0.9 2.6 0.00 0.00 0.00 97 1015.7
20260505060003 40 316 0.9 2.6 0.00 0.00 0.00 97 1015.7
20260505055503 39 309 0.9 2.6 0.00 0.00 0.00 97 1015.8
20260505055003 39 318 0.9 2.6 0.00 0.00 0.00 97 1015.7
20260505054503 39 331 0.9 2.6 0.00 0.00 0.00 97 1015.5
20260505054003 39 332 0.9 1.7 0.00 0.00 0.00 97 1015.7
20260505053503 39 344 0.9 1.7 0.00 0.00 0.00 97 1015.6
20260505053003 39 335 0.9 2.6 0.00 0.00 0.00 97 1015.7
20260505052503 38 313 0.9 2.6 0.00 0.00 0.00 97 1015.6
20260505052003 38 337 0.9 2.6 0.00 0.00 0.00 97 1015.6
20260505051718 38 350 0.9 1.7 0.00 0.00 0.00 97 1015.5
20260505051003 39 347 0.9 1.7 0.00 0.00 0.00 97 1015.5
20260505050503 39 343 0.9 1.7 0.00 0.00 0.00 97 1015.6
20260505041503 39 8 0.9 1.7 0.00 0.00 0.00 96 1015.3
20260505041003 39 350 0.9 1.7 0.00 0.00 0.00 96 1015.1
20260505040718 39 334 0.9 1.7 0.00 0.00 0.00 96 1015.5
20260505040004 39 338 0.9 1.7 0.00 0.00 0.00 96 1015.3
20260505035503 39 322 0.9 1.7 0.00 0.00 0.00 96 1015.3
20260505035003 40 316 0.9 1.7 0.00 0.00 0.00 96 1015.3
20260505034503 40 315 0.9 1.7 0.00 0.00 0.00 96 1015.4
20260505034003 40 318 0.0 1.7 0.00 0.00 0.00 96 1015.4
20260505033717 40 323 0.0 1.7 0.00 0.00 0.00 96 1015.3
20260505033003 40 331 0.0 1.7 0.00 0.00 0.00 96 1015.2
20260505032503 40 348 0.0 1.7 0.00 0.00 0.00 96 1015.3
20260505032003 40 4 0.0 1.7 0.00 0.00 0.00 96 1015.4
20260505031503 41 357 0.0 1.7 0.00 0.00 0.00 96 1015.5
20260505031003 41 324 0.0 1.7 0.00 0.00 0.00 96 1015.3
20260505030503 41 315 0.0 1.7 0.00 0.00 0.00 96 1015.3
20260505030004 41 323 0.9 1.7 0.00 0.00 0.00 95 1015.2
20260505025503 41 321 0.9 1.7 0.00 0.00 0.00 95 1015.2
20260505025003 41 317 0.9 1.7 0.00 0.00 0.00 95 1015.0
20260505024503 41 328 0.9 1.7 0.00 0.00 0.00 95 1015.3
20260505024003 41 335 0.9 1.7 0.00 0.00 0.00 95 1015.1
20260505023717 41 334 0.9 1.7 0.00 0.00 0.00 95 1015.2
20260505023003 42 338 0.0 1.7 0.00 0.00 0.00 95 1015.2
20260505022503 42 334 0.0 1.7 0.00 0.00 0.00 94 1015.2
20260505022003 42 329 0.9 1.7 0.00 0.00 0.00 94 1015.2
20260505021717 42 323 0.0 1.7 0.00 0.00 0.00 94 1015.3
20260505021003 42 326 0.0 0.9 0.00 0.00 0.00 94 1015.4
20260505020503 42 306 0.0 1.7 0.00 0.00 0.00 94 1015.2
20260505020003 42 300 0.0 1.7 0.00 0.00 0.00 94 1015.3
20260505015503 42 318 0.0 1.7 0.00 0.00 0.00 94 1015.2
20260505015218 42 321 0.0 1.7 0.00 0.00 0.00 93 1015.5
20260505014503 43 344 0.0 1.7 0.00 0.00 0.00 93 1015.4
20260505014003 43 353 0.0 1.7 0.00 0.00 0.00 93 1015.2
20260505013717 43 348 0.0 0.9 0.00 0.00 0.00 93 1015.5
20260505013003 43 325 0.0 1.7 0.00 0.00 0.00 93 1015.5
20260505012503 44 354 0.0 1.7 0.00 0.00 0.00 92 1015.5
20260505012003 44 331 0.0 1.7 0.00 0.00 0.00 92 1015.6
20260505011503 44 325 0.0 1.7 0.00 0.00 0.00 92 1015.8